| time (UTC) | temp C | wind direction | speed KPH | gust KPH | rain 1hr cm | rain 24hr cm | rain mn cm | humidity % | barometer mb |
| 20260510220050 | 17 | 19 | 3.2 | 12.9 | 0.00 | 0.00 | 0.00 | 54 | 1040.7 |
| 20260510214547 | 17 | 59 | 1.6 | 12.9 | 0.00 | 0.18 | 0.00 | 54 | 1040.4 |
| 20260510213111 | 18 | 323 | 3.2 | 8.0 | 0.00 | 0.18 | 0.00 | 56 | 1040.4 |
| 20260510211555 | 18 | 269 | 3.2 | 11.3 | 0.00 | 0.18 | 0.00 | 55 | 1040.1 |
| 20260510210050 | 18 | 325 | 1.6 | 4.8 | 0.00 | 0.18 | 0.00 | 55 | 1040.0 |
| 20260510204604 | 18 | 304 | 1.6 | 8.0 | 0.00 | 0.51 | 0.00 | 57 | 1040.1 |
| 20260510203048 | 20 | 243 | 1.6 | 12.9 | 0.00 | 0.51 | 0.00 | 55 | 1040.1 |
| 20260510201550 | 18 | 317 | 3.2 | 6.4 | 0.00 | 0.51 | 0.00 | 60 | 1040.2 |
| 20260510200050 | 19 | 26 | 1.6 | 9.7 | 0.00 | 0.51 | 0.00 | 60 | 1040.1 |
| 20260510194601 | 18 | 352 | 1.6 | 9.7 | 0.00 | 0.71 | 0.00 | 60 | 1040.3 |
| 20260510193050 | 20 | 5 | 1.6 | 8.0 | 0.00 | 0.71 | 0.00 | 60 | 1040.2 |
| 20260510191555 | 19 | 5 | 3.2 | 14.5 | 0.00 | 0.71 | 0.00 | 61 | 1040.4 |
| 20260510190057 | 20 | 348 | 1.6 | 6.4 | 0.00 | 0.71 | 0.00 | 61 | 1040.5 |
| 20260510184558 | 20 | 288 | 1.6 | 9.7 | 0.00 | 0.91 | 0.00 | 61 | 1040.4 |
| 20260510183054 | 18 | 5 | 0.0 | 9.7 | 0.00 | 0.91 | 0.00 | 67 | 1040.4 |
| 20260510181608 | 17 | 328 | 1.6 | 6.4 | 0.00 | 0.91 | 0.00 | 70 | 1040.5 |
| 20260510180053 | 17 | 36 | 0.0 | 6.4 | 0.00 | 0.91 | 0.00 | 69 | 1040.5 |
| 20260510174559 | 20 | 292 | 1.6 | 14.5 | 0.00 | 1.14 | 0.00 | 62 | 1040.3 |
| 20260510173050 | 18 | 61 | 3.2 | 9.7 | 0.00 | 1.14 | 0.00 | 66 | 1040.4 |
| 20260510171619 | 17 | 0 | 1.6 | 11.3 | 0.00 | 1.14 | 0.00 | 69 | 1040.5 |
| 20260510170054 | 18 | 165 | 1.6 | 11.3 | 0.00 | 1.14 | 0.00 | 66 | 1040.6 |
| 20260510164600 | 18 | 0 | 1.6 | 12.9 | 0.00 | 1.42 | 0.00 | 70 | 1040.8 |
| 20260510163057 | 18 | 248 | 3.2 | 14.5 | 0.00 | 1.42 | 0.00 | 67 | 1040.9 |
| 20260510161550 | 17 | 76 | 1.6 | 12.9 | 0.00 | 1.42 | 0.00 | 69 | 1040.9 |
| 20260510160051 | 17 | 46 | 3.2 | 14.5 | 0.00 | 1.42 | 0.00 | 69 | 1040.9 |
| 20260510154559 | 17 | 38 | 1.6 | 12.9 | 0.00 | 1.57 | 0.00 | 73 | 1041.0 |
| 20260510153055 | 16 | 98 | 3.2 | 12.9 | 0.00 | 1.57 | 0.00 | 75 | 1041.0 |
| 20260510151550 | 16 | 140 | 1.6 | 16.1 | 0.00 | 1.57 | 0.00 | 77 | 1041.0 |
| 20260510150056 | 15 | 159 | 3.2 | 9.7 | 0.00 | 1.57 | 0.00 | 80 | 1040.9 |
| 20260510144600 | 14 | 209 | 3.2 | 12.9 | 0.00 | 1.68 | 0.00 | 81 | 1041.0 |
| 20260510143050 | 15 | 75 | 4.8 | 12.9 | 0.00 | 1.68 | 0.00 | 80 | 1041.1 |
| 20260510141553 | 14 | 0 | 1.6 | 11.3 | 0.00 | 1.68 | 0.00 | 85 | 1041.0 |
| 20260510140050 | 13 | 80 | 1.6 | 6.4 | 0.00 | 1.68 | 0.00 | 89 | 1041.3 |
| 20260510134553 | 12 | 71 | 0.0 | 4.8 | 0.00 | 1.78 | 0.00 | 89 | 1041.3 |
| 20260510133110 | 11 | 13 | 0.0 | 6.4 | 0.00 | 1.78 | 0.00 | 91 | 1041.2 |
| 20260510131551 | 11 | 67 | 0.0 | 4.8 | 0.00 | 1.78 | 0.00 | 94 | 1041.2 |
| 20260510130055 | 10 | 154 | 1.6 | 6.4 | 0.00 | 1.78 | 0.00 | 96 | 1041.1 |
| 20260510124557 | 10 | 30 | 0.0 | 4.8 | 0.00 | 1.83 | 0.00 | 97 | 1041.1 |
| 20260510123053 | 10 | 107 | 0.0 | 6.4 | 0.00 | 1.83 | 0.00 | 97 | 1041.2 |
| 20260510121550 | 10 | 286 | 0.0 | 8.0 | 0.00 | 1.83 | 0.00 | 98 | 1041.3 |
| 20260510120050 | 9 | 100 | 0.0 | 6.4 | 0.00 | 1.83 | 0.00 | 98 | 1041.4 |
| 20260510114608 | 9 | 0 | 0.0 | 4.8 | 0.00 | 1.83 | 0.00 | 98 | 1041.2 |
| 20260510113058 | 8 | 342 | 3.2 | 6.4 | 0.00 | 1.83 | 0.00 | 98 | 1041.1 |
| 20260510111548 | 8 | 98 | 0.0 | 12.9 | 0.00 | 1.83 | 0.00 | 98 | 1040.8 |
| 20260510110056 | 8 | 198 | 1.6 | 8.0 | 0.00 | 1.83 | 0.00 | 98 | 1040.6 |
| 20260510104550 | 8 | 0 | 0.0 | 6.4 | 0.00 | 1.83 | 0.00 | 98 | 1040.4 |
| 20260510103056 | 8 | 0 | 1.6 | 6.4 | 0.00 | 1.83 | 0.00 | 98 | 1040.3 |
| 20260510101600 | 8 | 0 | 0.0 | 8.0 | 0.00 | 1.83 | 0.00 | 98 | 1040.0 |
| 20260510100105 | 8 | 159 | 0.0 | 4.8 | 0.00 | 1.83 | 0.00 | 98 | 1039.6 |
| 20260510094556 | 8 | 0 | 0.0 | 4.8 | 0.00 | 1.83 | 0.00 | 98 | 1039.5 |
| 20260510093050 | 8 | 80 | 0.0 | 4.8 | 0.00 | 1.83 | 0.00 | 98 | 1039.3 |
| 20260510091551 | 8 | 0 | 0.0 | 4.8 | 0.00 | 1.83 | 0.00 | 99 | 1038.8 |
| 20260510090049 | 8 | 0 | 0.0 | 4.8 | 0.00 | 1.83 | 0.00 | 99 | 1039.5 |
| 20260510084610 | 7 | 0 | 0.0 | 3.2 | 0.00 | 1.83 | 0.00 | 98 | 1039.8 |
| 20260510083050 | 7 | 0 | 0.0 | 1.6 | 0.00 | 1.83 | 0.00 | 98 | 1039.9 |
| 20260510081556 | 7 | 0 | 0.0 | 3.2 | 0.00 | 1.83 | 0.00 | 98 | 1039.6 |
| 20260510080100 | 7 | 0 | 0.0 | 1.6 | 0.00 | 1.83 | 0.00 | 98 | 1039.6 |
| 20260510074555 | 7 | 40 | 0.0 | 3.2 | 0.00 | 1.83 | 0.00 | 98 | 1039.4 |
| 20260510073058 | 7 | 132 | 0.0 | 1.6 | 0.00 | 1.83 | 0.00 | 98 | 1039.5 |
| 20260510071550 | 7 | 0 | 0.0 | 1.6 | 0.00 | 1.83 | 0.00 | 98 | 1039.5 |
| 20260510070056 | 7 | 0 | 0.0 | 1.6 | 0.00 | 1.83 | 0.00 | 98 | 1039.4 |
| 20260510064552 | 7 | 0 | 0.0 | 3.2 | 0.00 | 1.83 | 0.00 | 98 | 1039.6 |
| 20260510063054 | 7 | 0 | 0.0 | 0.0 | 0.00 | 1.83 | 0.00 | 98 | 1039.8 |
| 20260510061549 | 7 | 0 | 0.0 | 1.6 | 0.00 | 1.83 | 0.00 | 98 | 1039.6 |
| 20260510060050 | 7 | 0 | 0.0 | 0.0 | 0.00 | 1.83 | 0.00 | 98 | 1039.3 |
| 20260510054549 | 7 | 0 | 0.0 | 0.0 | 0.00 | 1.83 | 0.00 | 98 | 1039.7 |
| 20260510053054 | 7 | 0 | 0.0 | 3.2 | 0.00 | 1.83 | 0.00 | 98 | 1039.5 |
| 20260510051602 | 7 | 0 | 0.0 | 1.6 | 0.00 | 1.83 | 0.00 | 98 | 1039.6 |
| 20260510050059 | 7 | 0 | 0.0 | 3.2 | 0.00 | 1.83 | 0.00 | 98 | 1039.7 |
| 20260510044552 | 6 | 0 | 0.0 | 1.6 | 0.00 | 1.83 | 0.00 | 97 | 1040.0 |
| 20260510043050 | 6 | 0 | 0.0 | 1.6 | 0.00 | 1.83 | 0.00 | 97 | 1040.1 |
| 20260510041553 | 6 | 0 | 0.0 | 3.2 | 0.00 | 1.83 | 0.00 | 97 | 1040.1 |
| 20260510040053 | 6 | 115 | 0.0 | 1.6 | 0.00 | 1.83 | 0.00 | 97 | 1040.1 |
| 20260510034548 | 6 | 0 | 0.0 | 1.6 | 0.00 | 1.83 | 1.83 | 97 | 1040.0 |
| 20260510033056 | 6 | 0 | 0.0 | 0.0 | 0.00 | 1.83 | 1.83 | 97 | 1040.2 |
| 20260510031551 | 6 | 0 | 0.0 | 1.6 | 0.00 | 1.83 | 1.83 | 97 | 1040.4 |
| 20260510030059 | 6 | 0 | 0.0 | 0.0 | 0.00 | 1.83 | 1.83 | 97 | 1040.5 |
| 20260510024548 | 6 | 0 | 0.0 | 1.6 | 0.00 | 1.83 | 1.83 | 97 | 1040.6 |
| 20260510023049 | 6 | 0 | 0.0 | 1.6 | 0.00 | 1.83 | 1.83 | 97 | 1040.7 |
| 20260510021638 | 6 | 0 | 0.0 | 1.6 | 0.00 | 1.83 | 1.83 | 97 | 1040.8 |
| 20260510020053 | 6 | 0 | 0.0 | 1.6 | 0.00 | 1.83 | 1.83 | 97 | 1040.8 |
| 20260510014557 | 6 | 0 | 0.0 | 3.2 | 0.00 | 1.83 | 1.83 | 97 | 1040.8 |
| 20260510013058 | 6 | 0 | 0.0 | 1.6 | 0.00 | 1.83 | 1.83 | 97 | 1040.9 |
| 20260510011549 | 6 | 115 | 0.0 | 1.6 | 0.00 | 1.83 | 1.83 | 97 | 1040.9 |
| 20260510010057 | 6 | 0 | 0.0 | 0.0 | 0.00 | 1.83 | 1.83 | 97 | 1040.8 |
| 20260510004555 | 6 | 0 | 0.0 | 1.6 | 0.00 | 1.83 | 1.83 | 97 | 1040.6 |
| 20260510003051 | 6 | 0 | 0.0 | 1.6 | 0.00 | 1.83 | 1.83 | 97 | 1040.6 |
| 20260510001547 | 6 | 0 | 0.0 | 3.2 | 0.00 | 1.83 | 1.83 | 97 | 1040.5 |
| 20260510000054 | 6 | 0 | 0.0 | 3.2 | 0.00 | 1.83 | 1.83 | 97 | 1040.5 |
| 20260509234549 | 6 | 0 | 0.0 | 1.6 | 0.00 | 1.83 | 1.83 | 97 | 1040.5 |
| 20260509233048 | 6 | 101 | 0.0 | 1.6 | 0.00 | 1.83 | 1.83 | 97 | 1040.5 |
| 20260509231553 | 6 | 0 | 0.0 | 1.6 | 0.00 | 1.83 | 1.83 | 97 | 1040.4 |
| 20260509230054 | 6 | 0 | 0.0 | 1.6 | 0.00 | 1.83 | 1.83 | 97 | 1040.4 |
| 20260509224553 | 6 | 0 | 0.0 | 1.6 | 0.03 | 1.83 | 1.83 | 96 | 1040.4 |
| 20260509223053 | 6 | 0 | 0.0 | 3.2 | 0.05 | 1.83 | 1.83 | 96 | 1040.4 |
| 20260509221550 | 6 | 0 | 0.0 | 3.2 | 0.10 | 1.83 | 1.83 | 96 | 1040.4 |